SHIJIAN 6 02B (SJ-6 02B)

导读

SHIJIAN 6 02B(实践六号02B,SJ-6 02B)是中国发射的实践系列科学实验卫星,于2006年10月23日发射入轨。作为中国“实践”系列实验卫星的组成部分,它主要承担空间环境探测、新技术验证任务,测试卫星平台和空间探测相关技术,为中国后续航天工程和空间环境研究积累数据,推动空间技术的实用化转化。

基本信息
目录编号:
29506
目录名称:
SHIJIAN 6 02B (SJ-6 02B)
国际标识:
2006-046B
轨道中心:
EARTH
卫星名称:
SHIJIAN 6 02B (SJ-6 02B)
卫星全名:
--
卫星状态:
在轨 (已飞行7257 天)
发射日期:
2006-10-23 UTC
国别 :
中国 (CN)
星等 :
--
轨道信息
数据来源 国际轨道数据 AOE轨道数据
星历时间 2026-09-05T15:39:39+0800
9小时前
查看轨道信息
2026-09-03T22:00:00+0800
2天前
查看轨道信息
半长轴 6940.491km 6940.446km
偏心率 0.0016009 0.0016106
轨道倾角 97.702° 97.700°
近地点辐角 154.282° 160.691°
升交点赤经 276.843° 275.119°
平近点角 205.920° 182.444°
近地点 551.242km 551.13km
远地点 573.466km 573.488km
周期 95.906分钟 95.905分钟
每日圈数 15.01473 15.014875
详细信息
使用方式:
暂无
2D轨道图
3D轨道图
轨道高度分析图
轨道倾角分析图
轨道综合分析图
查看轨道综合分析图
交会数据列表
事件ID 空间交会对象 最接近时刻(TCA) 交会距离 交会风险概率(CRP) 交会风险指数(CRI) 操作
CDM_260906-152002-950605-646226
2026-09-06T
15:20:12+0000
1.798 km
极远距离
3.138105E-6 低风险 0.45
CDM_260907-165602-950606-701622
2026-09-07T
16:56:13+0000
2.260 km
极远距离
1.660552E-6 低风险 0.39
CDM_260906-085602-950606-480127
2026-09-06T
08:56:02+0000
2.499 km
极远距离
1.64264E-6 低风险 0.39
CDM_260906-054802-950606-719325
2026-09-06T
05:48:48+0000
2.749 km
极远距离
1.506593E-6 低风险 0.39
CDM_260906-112202-950604-096628
2026-09-06T
11:22:31+0000
2.391 km
极远距离
1.464776E-6 低风险 0.38
CDM_260830-184802-950606-217022
2026-08-30T
18:48:09+0000
2.879 km
极远距离
1.422438E-6 低风险 0.38
CDM_260906-041202-950606-721823
2026-09-06T
04:12:54+0000
2.923 km
极远距离
1.385769E-6 低风险 0.38